Date String (YYYY-MM-DD hh:mm:ss) UTC,Instrument flags,absolute air pressure of the measurement (hPa),sample flow rate (lpm),inlet stack bypass flow (lpm),air temperature of the measurement (°C),ambient temperature measured by the external sensor (°C),aerosol sample conditioner tube jacket temperature (°C),OPC LED temperature (°C),internal box temperature (°C),relative humidity of the measurement (%),span deviation,mass concentration of particles derived from Lorenz-Mie calculation of OPC scattering (μg/m³),mass concentration of particles derived from Lorenz-Mie calculation of OPC scattering (μg/m³),mass concentration of particles derived from Lorenz-Mie calculation of OPC scattering (μg/m³)
DateTimeUTC,F1_M11,P_M11,Q1_M11,Q2_M11,T1_M11,T2_M11,T3_M11,T4_M11,T5_M11,U1_M11,ZSPAN_M11,X2_M11,X0_M11,X1_M11
2023-07-25 21:00:00,SystemResetWarning,0832.7,5.01,000.00,028.7,026.6,000.0,037.0,030.3,22.7,0000.0,0004.44,0009.68,0003.38
2023-07-25 21:01:00,SystemResetWarning,0832.8,5.00,000.00,028.8,027.0,000.0,037.0,030.5,22.5,0000.0,0004.47,0009.79,0003.37
2023-07-25 21:02:00,SystemResetWarning,0832.8,4.99,000.00,028.8,027.3,000.0,037.0,030.6,22.8,0000.0,0004.46,0010.08,0003.37
2023-07-25 21:03:00,SystemResetWarning,0832.7,4.98,000.00,028.8,026.2,000.0,036.9,030.3,23.5,0000.0,0004.46,0010.16,0003.38
2023-07-25 21:04:00,SystemResetWarning,0832.7,5.01,000.00,028.7,025.3,000.0,036.9,030.2,22.6,0000.0,0004.46,0010.81,0003.38
2023-07-25 21:05:00,SystemResetWarning,0832.7,5.01,000.00,028.7,025.5,000.0,036.9,030.2,23.4,0000.0,0004.45,0011.21,0003.36
2023-07-25 21:06:00,SystemResetWarning,0832.7,5.00,000.00,028.7,025.9,000.0,036.9,030.2,22.7,0000.0,0004.40,0011.06,0003.34
2023-07-25 21:07:00,SystemResetWarning,0832.7,5.00,000.00,028.7,026.4,000.0,036.9,030.3,23.0,0000.0,0004.36,0011.68,0003.34
2023-07-25 21:08:00,SystemResetWarning,0832.8,5.00,000.00,028.7,026.8,000.0,037.0,030.4,22.5,0000.0,0004.31,0011.38,0003.32
2023-07-25 21:09:00,SystemResetWarning,0832.8,5.00,000.00,028.8,027.2,000.0,037.0,030.5,22.9,0000.0,0004.31,0011.67,0003.32
2023-07-25 21:10:00,SystemResetWarning,0832.7,4.98,000.00,028.8,026.9,000.0,037.0,030.5,23.4,0000.0,0004.28,0011.81,0003.31
2023-07-25 21:11:00,SystemResetWarning,0832.8,5.00,000.00,028.8,025.5,000.0,036.9,030.2,21.4,0000.0,0004.27,0011.74,0003.30
2023-07-25 21:12:00,SystemResetWarning,0832.7,5.02,000.00,028.7,025.3,000.0,036.8,030.1,21.8,0000.0,0004.30,0011.70,0003.29
2023-07-25 21:13:00,SystemResetWarning,0832.8,5.00,000.00,028.7,025.7,000.0,036.9,030.1,22.8,0000.0,0004.28,0011.32,0003.29
2023-07-25 21:14:00,SystemResetWarning,0832.7,5.00,000.00,028.7,026.1,000.0,036.9,030.2,22.1,0000.0,0004.23,0011.48,0003.27
2023-07-25 21:15:00,SystemResetWarning,0832.9,5.01,000.00,028.7,026.6,000.0,036.9,030.3,22.1,0000.0,0004.19,0011.39,0003.26
2023-07-25 21:16:00,SystemResetWarning,0833.1,5.00,000.00,028.8,027.1,000.0,037.0,030.5,22.8,0000.0,0004.19,0010.86,0003.27
2023-07-25 21:17:00,SystemResetWarning,0832.9,4.99,000.00,028.8,027.3,000.0,037.0,030.5,23.6,0000.0,0004.23,0010.96,0003.27
2023-07-25 21:18:00,SystemResetWarning,0832.8,5.00,000.00,028.8,026.2,000.0,037.0,030.2,22.7,0000.0,0004.23,0010.22,0003.25
2023-07-25 21:19:00,SystemResetWarning,0832.8,5.01,000.00,028.7,025.3,000.0,036.9,030.0,23.4,0000.0,0004.17,0009.93,0003.25
2023-07-25 21:20:00,SystemResetWarning,0832.9,5.01,000.00,028.7,025.6,000.0,036.9,030.1,23.7,0000.0,0004.13,0009.41,0003.25
2023-07-25 21:21:00,SystemResetWarning,0833.1,5.00,000.00,028.6,026.0,000.0,036.9,030.1,23.8,0000.0,0004.12,0009.03,0003.24
2023-07-25 21:22:00,SystemResetWarning,0833.2,5.00,000.00,028.7,026.4,000.0,036.9,030.2,22.7,0000.0,0004.08,0009.11,0003.22
2023-07-25 21:23:00,SystemResetWarning,0833.1,5.01,000.00,028.7,026.9,000.0,036.9,030.4,22.3,0000.0,0004.07,0009.25,0003.22
2023-07-25 21:24:00,SystemResetWarning,0833.0,4.99,000.00,028.8,027.3,000.0,037.0,030.5,22.9,0000.0,0004.08,0009.28,0003.22
2023-07-25 21:25:00,SystemResetWarning,0833.2,4.99,000.00,028.8,026.8,000.0,036.9,030.4,22.9,0000.0,0004.10,0009.23,0003.22
2023-07-25 21:26:00,SystemResetWarning,0832.9,5.00,000.00,028.8,025.5,000.0,036.9,030.2,22.6,0000.0,0004.07,0008.36,0003.22
2023-07-25 21:27:00,SystemResetWarning,0833.1,5.01,000.00,028.7,025.3,000.0,036.8,030.2,23.2,0000.0,0004.06,0008.39,0003.22
2023-07-25 21:28:00,SystemResetWarning,0833.0,5.00,000.00,028.7,025.7,000.0,036.9,030.1,23.0,0000.0,0004.04,0008.34,0003.22
2023-07-25 21:29:00,SystemResetWarning,0832.8,5.00,000.00,028.7,026.2,000.0,036.9,030.2,22.8,0000.0,0004.06,0008.34,0003.23
2023-07-25 21:30:00,SystemResetWarning,0833.1,5.00,000.00,028.7,026.7,000.0,036.9,030.4,22.5,0000.0,0004.05,0008.31,0003.22
2023-07-25 21:31:00,SystemResetWarning,0833.1,5.01,000.00,028.8,027.1,000.0,037.0,030.5,24.3,0000.0,0004.02,0008.22,0003.20
2023-07-25 21:32:00,SystemResetWarning,0833.0,4.99,000.00,028.8,027.2,000.0,037.0,030.6,23.2,0000.0,0004.05,0008.21,0003.19
2023-07-25 21:33:00,SystemResetWarning,0832.8,4.99,000.00,028.8,025.9,000.0,036.9,030.3,22.4,0000.0,0004.07,0008.17,0003.19
2023-07-25 21:34:00,SystemResetWarning,0832.8,5.01,000.00,028.7,025.1,000.0,036.8,030.1,23.6,0000.0,0004.02,0007.99,0003.18
2023-07-25 21:35:00,SystemResetWarning,0832.8,5.01,000.00,028.7,025.4,000.0,036.8,030.1,23.5,0000.0,0004.02,0008.07,0003.17
2023-07-25 21:36:00,SystemResetWarning,0833.0,4.99,000.00,028.6,025.9,000.0,036.9,030.1,23.0,0000.0,0003.99,0008.08,0003.16
2023-07-25 21:37:00,SystemResetWarning,0833.3,5.00,000.00,028.7,026.3,000.0,036.9,030.3,23.5,0000.0,0003.96,0008.03,0003.13
2023-07-25 21:38:00,SystemResetWarning,0833.0,5.01,000.00,028.7,026.8,000.0,037.0,030.4,23.7,0000.0,0003.95,0007.92,0003.12
2023-07-25 21:39:00,SystemResetWarning,0833.4,4.99,000.00,028.8,027.2,000.0,037.0,030.5,23.7,0000.0,0003.96,0007.93,0003.12
2023-07-25 21:40:00,SystemResetWarning,0833.0,4.99,000.00,028.8,026.6,000.0,036.9,030.4,23.7,0000.0,0003.93,0007.83,0003.11
2023-07-25 21:41:00,SystemResetWarning,0833.2,5.01,000.00,028.7,025.3,000.0,036.9,030.0,23.7,0000.0,0003.93,0007.98,0003.11
2023-07-25 21:42:00,SystemResetWarning,0833.1,5.01,000.00,028.6,025.2,000.0,036.8,030.0,24.0,0000.0,0003.96,0008.15,0003.13
2023-07-25 21:43:00,SystemResetWarning,0833.3,5.01,000.00,028.6,025.6,000.0,036.9,030.0,24.3,0000.0,0003.99,0008.39,0003.13
2023-07-25 21:44:00,SystemResetWarning,0833.1,5.00,000.00,028.6,026.1,000.0,036.9,030.1,25.3,0000.0,0003.99,0008.41,0003.13
2023-07-25 21:45:00,SystemResetWarning,0833.1,5.00,000.00,028.6,026.5,000.0,036.9,030.3,24.7,0000.0,0004.00,0008.34,0003.14
2023-07-25 21:46:00,SystemResetWarning,0832.9,5.00,000.00,028.7,027.0,000.0,036.9,030.4,24.2,0000.0,0004.02,0008.21,0003.16
2023-07-25 21:47:00,SystemResetWarning,0833.0,4.99,000.00,028.8,027.1,000.0,036.9,030.5,24.4,0000.0,0003.99,0008.16,0003.15
2023-07-25 21:48:00,SystemResetWarning,0832.9,5.00,000.00,028.7,025.8,000.0,036.9,030.2,24.8,0000.0,0004.05,0008.18,0003.17
2023-07-25 21:49:00,SystemResetWarning,0832.9,5.01,000.00,028.6,025.0,000.0,036.8,030.0,24.2,0000.0,0004.08,0009.02,0003.19
2023-07-25 21:50:00,SystemResetWarning,0833.2,5.01,000.00,028.6,025.4,000.0,036.8,030.0,23.8,0000.0,0004.12,0009.82,0003.20
2023-07-25 21:51:00,SystemResetWarning,0832.9,5.00,000.00,028.6,025.8,000.0,036.8,030.1,24.4,0000.0,0004.14,0010.10,0003.21
2023-07-25 21:52:00,SystemResetWarning,0833.0,5.00,000.00,028.6,026.3,000.0,036.9,030.2,24.1,0000.0,0004.16,0010.18,0003.21
2023-07-25 21:53:00,SystemResetWarning,0832.9,5.00,000.00,028.6,026.8,000.0,036.9,030.3,24.4,0000.0,0004.23,0010.41,0003.22
2023-07-25 21:54:00,SystemResetWarning,0832.9,5.00,000.00,028.7,027.2,000.0,036.9,030.5,24.1,0000.0,0004.25,0010.49,0003.22
2023-07-25 21:55:00,SystemResetWarning,0832.9,4.99,000.00,028.7,027.2,000.0,036.9,030.5,23.6,0000.0,0004.25,0010.47,0003.23
2023-07-25 21:56:00,SystemResetWarning,0832.9,4.99,000.00,028.7,025.9,000.0,036.9,030.2,23.7,0000.0,0004.29,0010.68,0003.23
2023-07-25 21:57:00,SystemResetWarning,0833.1,5.00,000.00,028.6,025.1,000.0,036.8,030.0,23.7,0000.0,0004.30,0010.94,0003.23
2023-07-25 21:58:00,SystemResetWarning,0833.0,5.02,000.00,028.6,025.4,000.0,036.8,030.0,24.2,0000.0,0004.37,0011.21,0003.25
2023-07-25 21:59:00,SystemResetWarning,0832.9,4.99,000.00,028.6,025.8,000.0,036.8,030.0,24.4,0000.0,0004.37,0011.23,0003.25
